Tracking 31011 objects as of 12-Jul-2025
HD Live streaming from Space Station
objects crossing your sky now

HINCUBE

Track HINCUBE now!
10-day predictions
HINCUBE is classified as:


NORAD ID: 39445
Int'l Code: 2013-066AF
Perigee: 541.9 km
Apogee: 594.8 km
Inclination: 97.8 °
Period: 95.9 minutes
Semi major axis: 6939 km
RCS: Unknown
Launch date: November 21, 2013
Source: Norway (NOR)
Launch site: Orenburg, Russia (OREN)

Uplink (MHz):
Downlink (MHz): 437.305
Beacon (MHz):
Mode:
Call sign:
Status: Inactive

Your satellite tracking list
Your tracking list is empty




NASA's NSSDC Master Catalog

Two Line Element Set (TLE):
1 39445U 13066AF  25193.44173383  .00005282  00000-0  40335-3 0  9999
2 39445  97.7513 154.4782 0038137 282.8641  76.8324 15.01839221628427
Source of the keplerian elements: AFSPC